Obertauern, Austria 16 day weather forecast

Slopes altitude range 1630 m - 2315m

Number of lifts: 26 Pistes: 100km

In some cases the lift and piste totals shown are for the ski domain (e.g. Three Valleys) rather than individual resort (e.g. Courchevel)

Overview

The 16 day weather forecast is fully updated 4 times every day.

    • Mon 22 APR 2019
    • Mon 22
    • 1C 7C
    • Tue 23 APR 2019
    • Tue 23
    • 1C 3C
    • Wed 24 APR 2019
    • Wed 24
    • 2C 5C
    • Thu 25 APR 2019
    • Thu 25
    • 3C 8C
    • Fri 26 APR 2019
    • Fri 26
    • 3C 7C
    • Sat 27 APR 2019
    • Sat 27
    • -2C 2C
    • Sun 28 APR 2019
    • Sun 28
    • 2C 9C
    • Mon 29 APR 2019
    • Mon 29
    • 3C 8C
    • Tue 30 APR 2019
    • Tue 30
    • -3C 0C
    • Wed 01 MAY 2019
    • Wed 01
    • -4C 0C
    • Thu 02 MAY 2019
    • Thu 02
    • -8C 1C
    • Fri 03 MAY 2019
    • Fri 03
    • -5C 3C
    • Sat 04 MAY 2019
    • Sat 04
    • -3C 6C
    • Sun 05 MAY 2019
    • Sun 05
    • 3C 11C
    • Mon 06 MAY 2019
    • Mon 06
    • 1C 4C
    • Tue 07 MAY 2019
    • Tue 07
    • -2C 1C

Date:

Time Type 0°C level Temp Chill Snow Cloud Speed Gust Dir Press
3:00 1835m -2°C -2_5 0cm 74% 5mph 6mph 1017mB
6:00 2766m -2°C -2_5 0cm 71% 5mph 7mph 1015mB
9:00 2879m 1°C 1_7 0cm 45% 7mph 9mph 1012mB
12:00 2792m 7°C 7_7 0cm 46% 7mph 9mph 1009mB
15:00 2764m 7°C 7_9 0cm 4% 9mph 11mph 1007mB
18:00 2356m 7°C 7_10 0cm 31% 10mph 15mph 1007mB
21:00 2058m 0°C 0_10 0cm 98% 10mph 15mph 1008mB
0:00 1870m -1°C -1_10 0cm 97% 10mph 16mph 1007mB
3:00 2026m -1°C -1_11 0cm 99% 11mph 16mph 1005mB
6:00 2190m -1°C -1_10 1cm 99% 10mph 16mph 1004mB
9:00 2283m 1°C 1_10 1cm 99% 10mph 16mph 1003mB
12:00 2251m 3°C 3_10 1cm 99% 10mph 15mph 1003mB
15:00 2220m 2°C 2_9 1cm 100% 9mph 15mph 1003mB
18:00 2196m 2°C 2_10 1cm 100% 10mph 16mph 1004mB
21:00 2571m 0°C 0_10 1cm 100% 10mph 16mph 1006mB
0:00 2529m 0°C 0_10 1cm 99% 10mph 17mph 1007mB
3:00 2562m 0°C 0_10 0cm 98% 10mph 16mph 1008mB
6:00 2672m 0°C 0_11 0cm 94% 11mph 17mph 1009mB
9:00 2484m 2°C 2_12 0cm 63% 12mph 17mph 1010mB
12:00 2545m 5°C 5_12 0cm 76% 12mph 17mph 1010mB
15:00 2631m 6°C 6_13 0cm 75% 13mph 18mph 1010mB
18:00 2715m 6°C 6_13 0cm 87% 13mph 22mph 1012mB
21:00 2717m 2°C 2_11 0cm 95% 11mph 19mph 1016mB
0:00 2715m 2°C 2_9 0cm 98% 9mph 15mph 1018mB
3:00 2633m 2°C 2_11 0cm 100% 11mph 17mph 1017mB
6:00 2472m 2°C 2_12 0cm 90% 12mph 18mph 1017mB
9:00 2518m 3°C 3_12 0cm 85% 12mph 17mph 1016mB
12:00 2778m 8°C 8_13 0cm 57% 13mph 16mph 1015mB
15:00 2863m 8°C 8_12 0cm 15% 12mph 16mph 1015mB
18:00 3046m 8°C 8_10 0cm 48% 10mph 16mph 1016mB
21:00 2954m 2°C 2_11 0cm 99% 11mph 17mph 1017mB
0:00 2761m 2°C 2_10 0cm 100% 10mph 17mph 1016mB
3:00 2628m 2°C 2_10 0cm 93% 10mph 16mph 1015mB
6:00 2554m 2°C 2_11 0cm 94% 11mph 17mph 1014mB
9:00 2518m 3°C 3_10 0cm 85% 10mph 14mph 1015mB
12:00 2594m 7°C 7_9 0cm 73% 9mph 12mph 1016mB
15:00 2120m 6°C 6_9 8cm 97% 9mph 12mph 1018mB
18:00 1390m 6°C 6_8 6cm 99% 8mph 14mph 1020mB
21:00 1521m -5°C -5_9 2cm 100% 9mph 15mph 1022mB
0:00 1539m -5°C -5_9 2cm 100% 9mph 15mph 1023mB
3:00 1519m -4°C -4_9 1cm 93% 9mph 17mph 1024mB
6:00 1740m -4°C -4_10 1cm 95% 10mph 16mph 1025mB
9:00 2028m -2°C -2_9 1cm 71% 9mph 12mph 1025mB
12:00 2153m 2°C 2_8 1cm 58% 8mph 10mph 1023mB
15:00 2225m 2°C 2_8 0cm 42% 8mph 11mph 1023mB
18:00 1962m 2°C 2_7 0cm 27% 7mph 9mph 1025mB
21:00 1592m -3°C -3_5 0cm 37% 5mph 7mph 1027mB
0:00 1620m -3°C -3_4 0cm 58% 4mph 6mph 1027mB
3:00 1646m -3°C -3_3 0cm 69% 3mph 4mph 1026mB
6:00 2635m -3°C -3_3 0cm 77% 3mph 4mph 1025mB
9:00 2631m 2°C 2_2 0cm 95% 2mph 2mph 1023mB
12:00 2769m 9°C 9_3 0cm 94% 3mph 3mph 1022mB
15:00 2828m 8°C 8_3 0cm 95% 3mph 4mph 1020mB
18:00 2815m 8°C 8_2 0cm 90% 2mph 3mph 1021mB
21:00 2582m 0°C 0_1 0cm 65% 1mph 1mph 1022mB
0:00 2577m 0°C 0_3 0cm 68% 3mph 4mph 1021mB
3:00 2204m 0°C 0_4 0cm 81% 4mph 6mph 1019mB
6:00 2738m -1°C -1_5 0cm 82% 5mph 6mph 1017mB
9:00 2682m 3°C 3_6 0cm 86% 6mph 7mph 1014mB
12:00 2822m 8°C 8_8 0cm 89% 8mph 10mph 1010mB
15:00 2764m 8°C 8_9 0cm 100% 9mph 11mph 1008mB
18:00 2728m 9°C 9_5 0cm 100% 5mph 6mph 1008mB
21:00 2680m 4°C 4_5 0cm 100% 5mph 7mph 1008mB
0:00 2590m 3°C 3_7 0cm 100% 7mph 10mph 1006mB
3:00 2449m 2°C 2_2 0cm 100% 2mph 3mph 1006mB
6:00 2018m 0°C 0_11 5cm 100% 11mph 15mph 1006mB
9:00 1543m -3°C -3_10 7cm 100% 10mph 14mph 1007mB
12:00 1552m 0°C 0_8 6cm 100% 8mph 12mph 1008mB
15:00 1667m -2°C -2_7 7cm 100% 7mph 10mph 1008mB
18:00 1613m -2°C -2_8 6cm 100% 8mph 13mph 1010mB
21:00 1399m -4°C -4_8 1cm 99% 8mph 12mph 1013mB
0:00 777m -8°C -8_7 1cm 89% 7mph 7mph 1014mB
3:00 518m -9°C -9_6 0cm 36% 6mph 7mph 1015mB
6:00 1313m -9°C -9_7 0cm 27% 7mph 9mph 1014mB
9:00 1734m -4°C -4_4 0cm 49% 4mph 5mph 1013mB
12:00 1837m 0°C 0_3 1cm 73% 3mph 4mph 1011mB
15:00 1933m 0°C 0_3 3cm 76% 3mph 4mph 1010mB
18:00 1777m 0°C 0_4 4cm 88% 4mph 5mph 1012mB
21:00 1547m -3°C -3_4 1cm 100% 4mph 4mph 1014mB
0:00 1152m -5°C -5_2 1cm 97% 2mph 3mph 1014mB
Afternoon 0.328125mm 0.5625 2007m 1°C 1_3 4cm 80% 3mph 5mph 1009mB
Morning 0.838542mm 0.75 1187m -5°C -5_2 7cm 83% 2mph 2mph 1014mB
Afternoon 0.0260417mm 0.1875 2364m 3°C 3_9 0cm 58% 9mph 12mph 1009mB
Morning 0.0260417mm 0.25 1521m -3°C -3_8 0cm 68% 8mph 9mph 1011mB
Afternoon 0mm 0 2710m 6°C 6_14 0cm 60% 14mph 19mph 1005mB
Morning 0.0208333mm 0 3302m 2°C 2_11 0cm 97% 11mph 20mph 1005mB
Afternoon 0.0416667mm 0.1875 3045m 11°C 11_14 0cm 85% 14mph 18mph 1001mB
Morning 0.0833333mm 0.375 2626m 4°C 4_13 0cm 78% 13mph 25mph 997mB
Afternoon 0.442708mm 0.5 2218m 4°C 4_10 0cm 93% 10mph 14mph 1001mB
Morning 1.09375mm 0.5625 1981m 1°C 1_6 9cm 100% 6mph 10mph 1008mB
Afternoon 1.44792mm 0.125 1593m 1°C 1_10 12cm 100% 10mph 13mph 1013mB
Morning 0.901042mm 0.125 1108m -5°C -5_8 7cm 100% 8mph 14mph 1020mB

16 day outlook at a glance

Forecast issued: 22/04/2019 08:21:46

Chat

Your comments and questions. In a resort? Let us know what it's like!


Characters left 250

For terms and conditions see Readers Comments on the Cookie and privacy policy page.